Regional Weather Roundup
Issued by NWS

Home | Current Version | Previous Version | Text Only | Print | Product List | Glossary On
Versions: 1 2 3 4 5 6 7 8 9 10 11 12 13 14 15 16 17 18 19 20 21 22 23 24 25 26 27 28 29 30 31 32 33 34 35 36 37 38 39 40 41 42 43 44 45 46 47 48 49 50
000
ASUS43 KLSX 132159
RWRMO

WEATHER SUMMARY FOR MISSOURI
NATIONAL WEATHER SERVICE SPRINGFIELD MO
500 PM CDT SUN JUL 13 2014

NOTE: "FAIR" INDICATES FEW OR NO CLOUDS BELOW 12,000 FEET WITH NO
       SIGNIFICANT WEATHER AND/OR OBSTRUCTIONS TO VISIBILITY.
       CURRENT SKY AND/OR WEATHER CONDITIONS ARE NOT AVAILABLE FOR
       CHILLICOTHE AND FARMINGTON.

MOZ001>031-035>038-043-044-053-054-132300-
...NORTHERN AND WESTERN MISSOURI...

CITY           SKY/WX    TMP DP  RH WIND       PRES   REMARKS
KANSAS CTY INT PTSUNNY   85  69  58 N7        30.00F
KANSAS C DTWN  MOSUNNY   87  71  58 N8        29.97F HX  93
LEE`S SUMMIT   PTSUNNY   83  72  69 N12       29.99F
ST JOSEPH      MOSUNNY   86  71  60 NW6       29.99F HX  91
CHILLICOTHE      N/A     87  67  51 VRB6      29.98F HX  90
KIRKSVILLE     MOSUNNY   86  66  51 NW6       29.98F

$$
MOZ066>068-077>081-088>096-101>105-132300-
...SOUTHWEST MISSOURI...

CITY           SKY/WX    TMP DP  RH WIND       PRES   REMARKS
SPRINGFIELD    PTSUNNY   90  69  50 SW6       29.97S HX  94
JOPLIN         MOSUNNY   92  69  47 SW12      29.96S HX  97

$$
MOZ032>034-039>042-045>050-055>058-069>072-132300-
...CENTRAL MISSOURI...

CITY           SKY/WX    TMP DP  RH WIND       PRES   REMARKS
COLUMBIA       CLOUDY    80  75  84 N7        29.98S
JEFFERSON CITY LGT RAIN  80  74  81 N3        29.96S
ROLLA          CLOUDY    84  67  56 N7        29.97S
SEDALIA        PTSUNNY   82  74  76 SW5       29.98F
OSAGE BEACH    MOSUNNY   86  72  62 N3        29.96F HX  92

$$
MOZ051-052-059>065-132300-
...EAST CENTRAL MISSOURI...

CITY           SKY/WX    TMP DP  RH WIND       PRES   REMARKS
ST LOUIS INTL  PTSUNNY   89  69  51 SW9       29.95S HX  93
SPIRIT OF STL  PTSUNNY   86  72  62 SW5       29.93F HX  92
ST CHARLES     PTSUNNY   87  70  56 NW7       29.93S HX  92

$$
MOZ072>076-082>087-097>100-106>115-132300-
...SOUTH CENTRAL AND SOUTHEAST MISSOURI...

CITY           SKY/WX    TMP DP  RH WIND       PRES   REMARKS
CAPE GIRARDEAU MOSUNNY   93  74  53 SW13      29.94F HX 103
FARMINGTON     MOSUNNY   88  72  58 N5        29.98F HX  94
POPLAR BLUFF   SUNNY     91  72  53 SW9       29.95F HX  98
WEST PLAINS    SUNNY     88  72  58 S10       30.01F HX  94

$$



USA.gov is the U.S. government's official web portal to all federal, state and local government web resources and services.